Location: Unspecified
(0.0000°N, 0.0000°E)
Time: 15:19:43
(UTC+00:00)

A-11 Canister half - Pass Details

Date: 25 May 2026
Orbit: 1515 x 1685 km, 47.2° (Epoch: 8 June)

Event Time Altitude Azimuth Distance (km) Brightness Sun altitude
Rises 15:15:44 0° 216° (SW) 4,936 11.8 37.1°
Reaches altitude 10° 15:18:56 10° 215° (SW) 3,941 11.3 36.4°
Maximum altitude 15:29:05 77° 130° (SE) 1,689 9.6 34.2°
Drops below altitude 10° 15:38:54 10° 44° (NE) 3,830 11.0 31.9°
Sets 15:41:57 0° 43° (NE) 4,792 11.4 31.2°
